sat.trackr.live / text

‹ back to catalog

STARLINK-34353

NORAD 64278 · 2025-120Y

PAYLOAD ACTIVE UNKNOWN

§ Identity

Operator
Country
US
Launch date
2025-06-04
Launch site
AFWTR
Launch vehicle
Mass (kg)
RCS (m²)

Purposes: comms

External: N2YO · Heavens-Above · Gunter

§ Orbital elements

Epoch: 2026-09-20T05:38:30.924096Z

Period
93.85 min
Inclination
53.1609°
Eccentricity
0.0001751
Mean motion
15.34407937 rev/d
Perigee alt
461.5 km
Apogee alt
463.9 km
Semi-major
6,840.8 km
B*
4.8112e-4
RAAN
290.7998°
Arg perigee
97.4765°
Mean anomaly
262.6437°
Rev number
7,373

§ Raw data

STARLINK-343531 64278U 25120Y   26263.23508014  .00015918  00000+0  48112-3 0  99912 64278  53.1609 290.7998 0001751  97.4765 262.6437 15.34407937 73732

JSON: /api/v1/satellites/64278 · /tle

For live sub-satellite position, see the globe view (requires WebGL).

§ Visibility from observer

Set your observer location to see the next 7 days of passes ≥ 10°. The values pass through the URL so the page stays shareable.

No JS? Fill the form by hand. The geolocation button needs JavaScript.